Temp
9 9 8 8 8 8 9 9 9 9 9 8 8 8 9 8 9 9 9 9 9 9 8 7 8 8 8 8 8 8 7 7 7 7 7 7 7 7 7 7 7 6 6 6 6 6 7 7 7
9 9 8 8 8 8 9 9 9 8 8 8 8 8 8 8 8 9 9 8 9 8 8 7 7 7 7 7 7 7 7 7 7 7 7 7 7 7 7 6 7 6 6 6 6 6 7 7 7
8 8 8 7 7 8 8 8 8 8 7 7 8 8 8 8 8 8 8 8 8 8 7 7 7 7 7 7 7 7 7 7 7 7 7 7 7 7 6 6 6 6 6 5 5 6 6 6 6
8 8 7 7 8 8 7 7 8 7 7 7 7 7 8 8 8 8 7 7 7 6 6 6 6 6 7 7 7 7 7 6 6 6 6 6 6 6 6 6 6 6 6 6 5 5 5 5 5
8 8 7 7 7 7 7 7 7 7 7 7 7 7 7 7 7 7 7 6 6 6 6 5 5 6 6 6 6 6 6 6 6 6 6 6 6 6 6 6 6 6 5 6 5 5 5 4 4
7 7 7 7 7 7 7 6 6 6 6 6 6 6 6 6 6 6 4 6 5 5 5 5 5 6 6 6 6 6 6 6 6 6 6 6 6 6 5 6 6 5 5 5 5 5 5 4 5
7 7 7 7 7 7 7 6 6 6 6 6 6 6 5 5 5 5 5 4 5 4 4 4 6 5 5 6 5 6 5 5 6 6 6 6 6 6 6 5 5 5 5 5 5 5 5 5 5
7 7 7 6 6 6 6 6 6 6 6 5 6 5 5 5 5 5 4 4 4 5 4 4 5 5 5 6 6 5 5 5 5 5 5 6 6 5 5 5 5 5 5 5 5 5 5 5 5
6 6 6 6 6 6 5 6 6 6 5 5 5 5 5 5 5 5 4 4 4 4 4 5 5 5 5 5 5 5 5 5 5 5 5 5 5 5 5 5 5 5 5 5 5 5 5 5 5
6 6 6 6 5 5 5 5 5 5 5 5 5 4 4 5 5 4 4 5 5 5 5 5 5 6 6 6 6 5 6 6 6 5 5 5 5 5 5 5 5 5 5 5 5 5 5 5 4
5 5 5 5 5 5 5 5 5 4 5 5 4 4 4 4 4 4 4 4 5 5 5 5 5 5 5 5 5 5 5 5 6 5 5 5 5 5 5 5 5 5 5 5 5 5 5 5 4
5 5 5 5 5 5 5 4 4 4 4 5 4 4 4 4 4 4 4 4 5 5 5 5 5 5 5 5 5 5 5 5 5 5 5 5 5 5 5 5 5 5 5 5 4 4 4 4 4
5 5 5 5 5 5 5 4 4 4 4 4 4 4 4 4 4 4 4 4 5 5 5 5 5 5 5 5 5 5 5 5 5 5 5 5 5 5 5 5 5 5 5 5 5 4 4 4 4
5 5 5 5 5 5 5 4 4 4 4 4 4 4 4 4 4 4 4 4 4 4 5 5 5 4 4 4 4 4 4 4 4 4 4 4 5 5 5 5 5 5 5 5 5 5 5 5 4
4 5 5 5 5 4 4 5 5 5 5 4 4 4 4 4 4 5 5 4 4 4 4 4 4 4 4 4 4 4 4 4 4 4 4 4 4 4 4 4 4 4 5 5 5 5 5 4 5
4 4 4 5 5 4 4 5 5 5 5 4 4 4 4 5 5 4 4 4 4 4 4 4 4 4 3 3 3 3 3 3 4 4 4 4 4 5 5 5 5 5 4 4 4 4 4 4 4
4 4 4 4 4 4 4 5 5 5 5 5 5 4 4 5 5 4 4 4 4 4 4 3 3 3 3 3 3 3 3 3 3 3 4 4 4 4 4 4 4 4 4 4 4 4 4 4 4
3 3 3 3 4 4 4 4 4 4 5 4 4 4 4 4 4 4 4 4 4 4 3 3 3 3 3 3 3 3 3 3 3 3 4 4 4 4 4 4 4 4 4 4 3 3 3 3 3
3 3 3 3 3 3 4 4 4 4 4 5 5 4 4 4 4 4 4 3 3 3 3 2 2 2 2 2 2 2 2 2 3 3 3 3 4 4 4 4 4 4 3 3 3 3 3 3 3
2 2 2 2 2 3 3 4 4 4 4 4 4 4 4 4 3 3 3 3 2 2 2 2 2 2 2 2 3 3 3 3 3 3 3 3 3 3 3 3 3 3 3 3 3 3 3 2 2
2 2 2 1 2 2 3 4 4 4 4 4 4 4 4 3 3 2 3 2 2 1 1 1 2 2 2 2 2 2 3 3 3 3 3 3 3 3 3 3 3 3 3 3 2 2 2 2 2
1 1 1 1 1 1 1 1 4 5 5 5 4 4 5 4 4 2 1 1 1 1 1 1 1 1 1 1 2 2 3 3 3 3 3 2 2 2 2 3 3 3 3 3 2 2 2 2 2
0 0 0 0 0 0 0 1 3 4 5 5 5 5 4 4 4 2 1 1 0 0 0 0 0 0 1 1 2 2 2 3 2 2 2 2 2 2 2 2 2 2 2 2 2 2 2 1 1
-0 -1 -1 -1 -1 -3 0 1 2 4 4 5 5 5 5 3 2 1 0 -0 0 0 -0 -0 -0 -0 0 1 1 2 2 2 2 2 2 2 1 1 1 2 2 2 2 2 2 2 1 1 0
-1 -1 -2 -5 -6 -4 -1 -2 2 3 4 4 4 4 4 3 1 0 -0 -0 -0 -1 -1 -1 -1 -0 0 1 1 1 1 1 1 1 1 1 1 1 1 1 1 1 1 1 1 1 0 -1 -1
-2 -2 -1 -6 -6 -4 -2 -2 2 2 3 3 3 4 2 2 0 -1 -1 -1 -1 -1 -1 -1 -1 -0 0 1 1 1 1 1 1 1 1 1 1 1 1 1 0 -0 -0 -0 -0 -0 -1 -2 -2
-3 -3 -2 -2 -4 -5 -1 -0 1 2 2 2 2 2 2 0 -1 -1 -1 -2 -2 -2 -2 -1 -1 -0 0 1 0 0 0 -0 -0 -0 0 0 0 1 0 0 -0 -1 -1 -1 -2 -2 -2 -3 -3
-3 -3 -3 -3 -6 -6 -4 -2 1 1 1 1 1 1 0 -1 -1 -2 -2 -2 -2 -2 -2 -1 -1 -0 -0 -0 -0 -0 -0 -1 -1 -0 -0 -0 -0 -1 -1 -1 -1 -1 -1 -2 -3 -3 -3 -3 -4
-3 -4 -3 -3 -4 -7 -6 -1 -0 -1 -0 0 0 -1 -2 -2 -2 -2 -3 -3 -2 -2 -2 -2 -1 -1 -1 -1 -1 -1 -1 -1 -1 -1 -1 -1 -1 -1 -1 -1 -1 -1 -1 -2 -2 -3 -4 -4 -4
-3 -3 -3 -3 -5 -4 -6 -3 -1 -1 -1 -1 -1 -2 -3 -3 -3 -3 -3 -3 -3 -3 -3 -2 -2 -2 -1 -1 -1 -1 -2 -2 -2 -2 -2 -2 -2 -1 -1 -1 -1 -1 -1 -1 -2 -3 -4 -5 -5
Height
3135 3135 3135 3136 3141 3135 3133 3134 3133 3134 3135 3136 3136 3138 3140 3141 3143 3146 3143 3145 3146 3148 3150 3151 3154 3155 3156 3157 3159 3160 3161 3162 3164 3165 3166 3166 3167 3168 3168 3169 3170 3169 3170 3171 3171 3170 3170 3170 3170
3133 3133 3134 3134 3136 3133 3132 3132 3133 3133 3134 3135 3136 3137 3139 3140 3141 3142 3142 3143 3145 3147 3149 3150 3152 3153 3155 3156 3157 3159 3161 3162 3163 3164 3165 3166 3166 3167 3168 3169 3169 3170 3170 3170 3171 3171 3171 3171 3171
3132 3132 3133 3132 3131 3131 3132 3131 3131 3132 3133 3134 3136 3136 3138 3139 3140 3140 3141 3141 3144 3146 3147 3149 3151 3153 3155 3156 3157 3158 3160 3161 3162 3164 3165 3165 3166 3166 3167 3168 3169 3169 3170 3170 3170 3171 3171 3171 3171
3132 3132 3133 3130 3129 3130 3130 3130 3130 3130 3131 3133 3135 3136 3137 3137 3138 3139 3140 3141 3144 3145 3147 3148 3149 3150 3152 3153 3156 3158 3159 3160 3161 3162 3164 3165 3165 3166 3166 3167 3168 3168 3169 3170 3170 3170 3170 3171 3171
3130 3129 3129 3129 3129 3129 3129 3128 3128 3129 3130 3131 3133 3134 3135 3136 3137 3137 3138 3140 3142 3144 3144 3146 3148 3150 3151 3152 3154 3155 3157 3158 3159 3160 3162 3163 3164 3165 3165 3166 3167 3168 3168 3169 3169 3169 3169 3170 3171
3128 3129 3128 3127 3127 3127 3127 3127 3127 3128 3129 3130 3131 3132 3134 3134 3136 3137 3136 3139 3140 3142 3143 3144 3145 3147 3149 3151 3152 3154 3155 3157 3158 3159 3160 3161 3163 3163 3164 3164 3165 3166 3167 3167 3167 3167 3168 3168 3169
3128 3127 3126 3125 3124 3125 3124 3125 3125 3126 3128 3129 3129 3130 3131 3133 3133 3134 3136 3137 3139 3140 3141 3142 3143 3145 3147 3149 3151 3152 3152 3153 3156 3157 3158 3159 3160 3161 3162 3163 3164 3164 3165 3165 3166 3165 3166 3167 3167
3126 3126 3124 3123 3123 3123 3123 3123 3124 3125 3126 3127 3128 3128 3130 3131 3132 3133 3134 3136 3137 3138 3140 3141 3142 3144 3145 3146 3148 3150 3150 3150 3153 3154 3155 3156 3157 3158 3158 3160 3161 3161 3162 3163 3163 3164 3164 3165 3166
3124 3124 3122 3122 3121 3121 3122 3122 3122 3123 3124 3125 3126 3127 3128 3129 3130 3132 3133 3134 3136 3137 3138 3139 3141 3143 3143 3144 3146 3148 3149 3150 3151 3151 3152 3153 3154 3155 3156 3156 3157 3158 3159 3160 3161 3161 3162 3162 3163
3122 3122 3121 3120 3119 3119 3118 3120 3120 3121 3121 3123 3124 3125 3127 3128 3129 3130 3132 3133 3134 3135 3135 3136 3137 3139 3141 3142 3143 3144 3146 3146 3147 3148 3149 3150 3150 3151 3152 3153 3153 3154 3155 3157 3157 3158 3159 3159 3160
3120 3120 3119 3118 3117 3117 3117 3117 3118 3118 3119 3120 3122 3123 3124 3126 3127 3128 3130 3131 3131 3132 3133 3133 3135 3136 3138 3139 3140 3142 3142 3143 3143 3144 3145 3146 3147 3147 3148 3148 3149 3149 3151 3152 3153 3154 3155 3155 3156
3119 3118 3117 3116 3116 3115 3115 3116 3116 3116 3117 3117 3118 3121 3122 3123 3124 3126 3127 3128 3129 3130 3131 3131 3132 3133 3135 3136 3137 3138 3139 3140 3140 3141 3141 3142 3143 3144 3144 3145 3145 3145 3146 3147 3149 3150 3150 3151 3152
3115 3115 3114 3114 3113 3113 3113 3114 3113 3114 3114 3115 3116 3118 3120 3122 3123 3124 3125 3126 3127 3128 3129 3130 3131 3132 3133 3134 3135 3136 3137 3137 3138 3138 3138 3139 3139 3140 3140 3141 3141 3141 3142 3143 3144 3145 3146 3146 3147
3114 3113 3112 3112 3112 3112 3111 3111 3112 3112 3112 3113 3115 3116 3119 3120 3121 3122 3123 3124 3125 3126 3128 3129 3130 3132 3132 3133 3134 3135 3135 3135 3135 3135 3136 3136 3136 3137 3137 3136 3136 3136 3137 3138 3139 3139 3140 3141 3141
3110 3111 3110 3110 3110 3110 3109 3110 3110 3110 3111 3112 3113 3115 3117 3118 3119 3120 3122 3123 3124 3124 3126 3128 3129 3130 3131 3132 3132 3133 3133 3133 3133 3133 3133 3133 3133 3133 3133 3132 3132 3132 3132 3132 3133 3133 3133 3134 3134
3108 3109 3109 3108 3108 3107 3108 3108 3108 3108 3109 3111 3113 3114 3115 3116 3117 3119 3120 3121 3122 3123 3125 3127 3128 3129 3130 3130 3130 3131 3130 3130 3130 3130 3129 3128 3128 3128 3128 3128 3127 3126 3126 3126 3127 3127 3127 3127 3127
3106 3106 3106 3106 3105 3105 3106 3105 3106 3106 3107 3108 3110 3112 3113 3114 3116 3116 3118 3119 3120 3122 3124 3125 3127 3128 3128 3129 3129 3128 3128 3127 3126 3125 3125 3124 3123 3122 3122 3122 3121 3121 3121 3121 3120 3120 3120 3120 3121
3103 3103 3103 3104 3104 3103 3103 3103 3103 3104 3104 3106 3108 3109 3111 3112 3113 3114 3115 3117 3119 3120 3122 3123 3124 3124 3125 3125 3125 3125 3124 3123 3122 3121 3120 3119 3118 3117 3116 3115 3114 3113 3113 3113 3112 3112 3112 3113 3113
3100 3100 3101 3101 3101 3101 3099 3099 3100 3100 3102 3103 3104 3107 3109 3109 3110 3111 3112 3114 3116 3118 3120 3120 3121 3122 3123 3123 3123 3123 3122 3120 3118 3116 3115 3113 3111 3110 3109 3107 3107 3105 3105 3104 3104 3104 3103 3104 3104
3097 3097 3098 3100 3098 3098 3096 3095 3097 3097 3099 3101 3103 3104 3106 3107 3108 3109 3110 3111 3114 3115 3117 3118 3119 3119 3119 3119 3118 3117 3116 3115 3113 3111 3108 3106 3104 3103 3101 3100 3098 3097 3096 3096 3095 3095 3095 3095 3095
3094 3095 3096 3098 3096 3095 3094 3090 3093 3093 3095 3097 3098 3100 3101 3102 3104 3105 3107 3109 3111 3112 3113 3114 3115 3115 3114 3113 3112 3110 3109 3107 3104 3102 3100 3097 3095 3093 3092 3091 3089 3088 3087 3087 3087 3086 3086 3086 3086
3091 3091 3093 3095 3095 3093 3092 3088 3087 3088 3089 3091 3093 3094 3096 3097 3098 3100 3103 3105 3107 3109 3110 3110 3110 3109 3108 3107 3105 3103 3102 3100 3097 3094 3092 3089 3086 3085 3083 3082 3080 3079 3078 3078 3078 3078 3077 3077 3076
3090 3089 3090 3092 3093 3091 3089 3090 3078 3082 3084 3086 3088 3089 3091 3092 3093 3096 3099 3101 3103 3105 3105 3106 3105 3104 3103 3101 3099 3097 3094 3091 3089 3086 3084 3081 3079 3076 3075 3072 3071 3070 3068 3068 3068 3068 3067 3067 3066
3084 3085 3087 3090 3091 3089 3084 3085 3073 3076 3079 3081 3082 3083 3085 3087 3088 3090 3094 3097 3100 3100 3101 3101 3101 3099 3098 3096 3093 3090 3087 3084 3081 3079 3076 3074 3072 3069 3066 3063 3061 3060 3059 3058 3057 3056 3056 3056 3056
3079 3081 3084 3089 3091 3084 3082 3081 3069 3073 3073 3075 3076 3076 3079 3081 3085 3088 3089 3092 3094 3096 3097 3098 3096 3095 3093 3091 3087 3083 3080 3077 3073 3071 3068 3066 3064 3062 3059 3055 3053 3051 3049 3048 3047 3046 3045 3045 3046
3077 3078 3076 3086 3086 3080 3079 3073 3069 3070 3069 3070 3071 3072 3073 3076 3080 3086 3088 3088 3090 3092 3093 3093 3092 3090 3088 3085 3081 3077 3073 3069 3066 3063 3059 3057 3054 3052 3050 3047 3044 3041 3039 3037 3036 3035 3035 3036 3037
3076 3075 3075 3075 3079 3081 3075 3070 3069 3069 3067 3067 3067 3068 3069 3072 3075 3081 3085 3087 3088 3088 3088 3087 3086 3084 3081 3078 3075 3071 3066 3063 3059 3055 3051 3048 3045 3042 3040 3037 3034 3031 3028 3026 3025 3025 3026 3026 3027
3073 3075 3074 3073 3076 3077 3068 3066 3064 3065 3064 3064 3064 3064 3065 3067 3072 3076 3081 3084 3085 3084 3083 3082 3080 3078 3075 3071 3067 3064 3060 3056 3052 3048 3044 3040 3037 3034 3030 3028 3025 3023 3020 3018 3016 3015 3017 3017 3019
3069 3070 3070 3070 3070 3070 3071 3063 3063 3062 3061 3061 3061 3062 3064 3068 3070 3073 3076 3079 3080 3080 3078 3076 3074 3071 3067 3064 3060 3057 3053 3049 3046 3041 3037 3034 3031 3026 3023 3021 3018 3016 3013 3010 3008 3007 3008 3008 3010
3063 3066 3068 3066 3067 3066 3064 3061 3061 3060 3060 3060 3059 3060 3064 3066 3069 3070 3072 3074 3075 3074 3073 3070 3067 3064 3061 3057 3054 3050 3047 3043 3039 3035 3030 3027 3025 3021 3018 3014 3011 3007 3005 3002 3000 2999 2999 3000 3001
Wind_Speed
9 9 10 10 7 8 13 12 16 11 13 14 13 17 15 13 10 6 3 9 11 12 15 14 13 12 11 10 8 7 6 5 4 4 4 3 3 3 3 3 3 4 3 1 5 5 4 5 6
8 9 10 10 9 13 12 14 12 12 11 13 11 14 12 14 11 8 6 7 11 12 14 17 15 15 13 11 9 8 7 6 5 4 4 3 3 3 3 2 3 5 5 3 2 3 3 4 7
9 8 9 6 11 16 7 9 11 12 11 9 12 13 12 12 13 12 12 12 10 10 13 16 16 15 14 12 11 10 9 7 6 5 4 4 4 4 4 3 4 5 6 5 2 3 3 3 6
10 10 9 11 13 11 11 15 10 11 13 13 12 9 13 13 13 15 13 13 7 10 12 17 18 16 16 15 14 13 11 10 9 7 6 6 5 5 5 5 5 6 7 8 7 6 4 3 5
9 11 10 12 12 13 13 12 11 12 13 12 12 11 9 11 11 11 12 12 12 15 13 12 15 15 16 17 16 14 13 12 11 10 9 8 8 7 7 7 7 8 8 9 10 9 8 6 6
10 10 9 13 13 14 13 12 12 12 12 10 10 9 9 10 11 12 15 14 17 16 14 14 17 18 18 17 16 14 13 13 12 12 11 10 10 10 10 9 9 9 9 10 11 11 10 6 9
10 11 13 15 15 15 12 12 14 13 13 11 11 11 10 10 10 13 17 15 18 15 14 16 11 13 14 15 13 13 13 12 12 13 14 13 12 12 13 13 12 11 11 11 10 11 11 9 11
9 10 13 14 14 14 11 11 14 14 14 13 13 10 12 8 10 13 15 17 15 16 17 16 14 13 14 15 15 13 12 8 15 14 13 13 14 16 16 17 16 15 14 14 13 11 11 12 13
10 11 11 13 13 10 10 10 14 16 16 16 15 14 9 10 10 12 15 15 15 15 16 16 15 16 16 16 14 15 17 16 16 18 17 17 17 17 17 18 19 19 17 17 16 15 14 15 15
11 10 10 11 11 11 9 10 12 15 15 15 14 12 12 8 14 14 15 16 17 17 18 18 18 18 19 19 19 20 20 21 21 21 22 21 21 22 21 20 20 20 21 20 19 18 18 18 16
11 10 11 11 12 11 11 10 12 13 13 12 11 11 12 11 11 11 10 12 13 14 15 16 16 15 16 16 16 17 17 18 18 18 19 18 19 20 22 24 26 26 23 22 22 22 21 21 21
10 11 12 12 11 11 11 12 13 15 13 12 12 11 10 11 11 11 11 11 11 12 13 13 13 13 13 14 15 15 16 16 16 17 17 17 18 19 20 21 21 23 26 27 24 23 25 25 24
11 10 12 11 11 11 12 12 13 11 12 10 10 11 11 12 11 11 10 10 9 8 8 8 7 7 8 8 7 7 8 9 10 11 12 13 15 17 18 20 22 23 23 23 26 26 26 26 25
11 11 13 11 11 10 9 9 10 6 8 10 9 10 11 11 11 11 10 9 8 7 7 6 6 6 4 3 3 3 4 6 7 8 10 11 12 13 14 15 17 19 21 23 25 26 28 30 32
12 13 14 12 12 11 9 9 9 8 5 8 10 11 10 10 12 12 11 9 9 8 7 7 6 5 4 3 4 6 8 10 11 13 14 15 16 16 16 17 18 19 19 20 21 23 25 28 30
13 13 13 10 9 11 10 8 5 8 8 9 12 12 10 9 12 11 11 10 10 9 8 7 6 5 5 6 7 8 10 12 15 16 18 19 19 20 20 21 22 23 24 24 24 24 25 26 27
12 11 13 12 10 9 10 8 7 11 10 12 14 13 11 9 11 11 12 11 11 10 8 7 7 7 7 7 9 11 13 15 17 19 21 23 24 25 25 24 25 26 27 27 28 29 29 29 30
7 10 12 11 11 10 12 10 11 9 12 14 16 15 11 9 11 13 14 13 12 10 9 8 8 8 9 10 12 13 14 17 19 21 23 25 27 27 27 28 29 30 30 29 30 30 31 31 32
15 13 13 11 10 11 12 14 13 13 12 14 17 17 14 12 13 16 17 15 14 12 10 9 8 9 11 12 14 15 16 18 21 24 25 27 29 31 31 31 30 31 31 31 31 31 32 32 33
15 16 18 15 13 13 15 15 13 16 14 14 15 17 16 17 16 16 17 16 15 13 12 10 10 11 12 14 16 18 21 24 26 27 29 31 31 31 31 31 31 32 32 32 33 32 33 33 34
15 17 16 16 17 18 19 26 18 19 19 19 20 20 22 21 20 19 17 16 16 15 13 12 11 11 14 17 19 23 26 29 32 33 34 34 33 32 31 30 30 30 32 32 33 34 35 35 36
13 13 15 15 13 7 5 7 12 15 22 24 24 24 24 24 25 23 18 17 17 15 13 12 10 13 17 20 24 27 30 32 34 34 32 30 31 30 30 30 31 31 32 33 34 34 36 37 38
12 10 9 11 13 14 12 9 14 15 19 19 18 24 28 29 28 24 19 19 18 15 11 10 12 16 19 23 28 31 34 36 35 32 30 29 29 29 29 30 30 31 33 34 35 36 38 39 40
11 9 9 10 9 6 15 16 9 19 19 18 19 20 22 28 29 26 22 20 17 13 11 11 15 17 21 27 30 33 35 34 32 30 29 29 28 28 29 31 32 32 33 35 35 36 39 40 41
10 6 1 2 1 5 7 12 23 8 14 14 18 21 21 25 28 26 22 20 16 14 13 14 17 19 24 28 31 33 33 32 32 30 29 28 27 28 29 33 35 36 36 35 36 36 36 36 38
13 13 6 5 2 3 5 9 5 6 13 18 18 20 19 22 25 24 22 19 17 15 15 16 18 22 25 29 31 33 33 32 31 30 29 29 29 30 31 32 35 35 36 35 35 35 34 33 34
9 12 13 3 5 2 7 13 15 19 22 13 15 19 20 22 24 24 22 19 17 16 16 17 21 24 27 32 32 33 33 32 30 30 30 30 31 31 30 29 30 31 33 34 34 35 33 32 30
13 7 5 7 3 4 5 7 10 6 8 11 12 17 22 25 26 24 21 18 17 16 17 19 22 25 28 30 33 34 32 32 31 30 29 30 30 27 23 21 22 22 25 28 32 34 33 32 30
16 17 9 6 4 4 1 4 5 9 15 11 8 14 22 24 23 21 18 17 18 17 18 22 27 28 31 34 34 32 30 30 31 31 30 29 26 24 24 24 23 23 24 25 28 32 32 33 31
14 15 18 7 6 7 3 10 14 9 8 8 4 13 22 22 19 18 17 14 14 17 23 26 29 31 35 36 34 30 28 29 31 30 30 28 24 24 25 26 26 25 25 27 29 27 29 32 34
Wind_Direction
292 273 264 257 237 233 238 238 240 242 224 211 208 201 207 212 210 211 224 203 216 203 203 198 198 197 198 195 194 197 198 199 195 195 200 210 228 248 245 238 215 218 212 291 354 20 59 62 55
302 282 265 251 239 244 255 257 253 242 229 210 201 202 203 214 220 232 242 219 201 204 198 201 200 202 200 199 200 204 206 206 209 213 220 234 254 271 269 242 216 234 231 287 330 30 66 56 50
304 284 261 243 248 252 262 272 252 238 223 203 203 205 210 220 224 228 238 237 218 210 202 205 206 204 204 208 211 208 209 210 217 225 234 246 260 275 274 262 253 243 250 272 290 331 348 358 22
305 284 262 249 256 267 272 268 264 234 225 217 211 217 228 237 238 236 234 231 210 188 203 205 203 207 208 210 215 216 216 214 215 225 237 247 254 260 268 265 258 255 258 273 284 287 280 336 355
298 285 264 267 276 279 275 273 249 229 224 226 226 235 240 235 232 226 220 204 200 207 202 206 208 216 216 215 214 217 219 222 222 223 232 240 249 255 258 263 262 266 270 270 275 283 280 271 310
300 290 279 286 290 292 279 263 240 229 230 237 245 248 243 230 224 214 213 200 190 205 205 212 218 211 216 219 220 222 224 225 232 235 236 241 247 251 249 250 252 257 268 276 275 283 282 270 278
303 300 292 290 293 290 282 256 236 231 236 247 260 263 257 239 227 215 207 213 192 197 207 214 227 214 224 232 231 235 228 229 236 243 245 242 246 251 256 257 253 255 256 262 274 275 270 262 264
304 301 291 296 299 295 283 249 241 242 244 250 262 265 257 247 223 211 207 205 213 216 207 219 223 220 224 233 229 227 232 223 225 243 242 247 250 250 250 252 251 251 251 256 258 268 269 264 266
294 281 299 303 301 302 283 257 245 248 253 258 262 252 250 232 219 212 210 211 213 214 215 219 219 224 229 234 236 232 237 235 238 241 246 246 251 253 251 253 253 253 253 255 258 260 264 266 268
279 294 302 301 294 287 274 263 257 255 256 257 255 247 241 243 218 218 224 227 230 232 234 236 236 238 242 245 247 246 245 248 251 251 251 248 248 251 251 253 254 255 252 252 253 254 258 264 268
279 290 297 296 289 282 276 262 257 262 263 257 247 244 242 239 225 217 225 230 232 233 235 237 238 237 242 242 244 247 248 249 252 254 256 256 258 258 256 256 253 251 249 250 250 254 254 257 258
279 287 295 298 290 281 271 267 264 268 262 249 236 231 228 223 220 233 237 233 232 232 233 236 238 241 244 245 243 246 250 252 254 257 260 262 262 263 263 262 263 262 257 253 253 254 256 257 258
275 282 288 297 293 289 279 272 265 263 249 242 233 222 219 218 220 223 230 228 216 212 214 216 219 220 222 223 227 235 248 254 258 263 265 268 269 267 267 267 266 265 265 263 258 255 256 260 262
278 277 283 290 295 288 284 269 260 265 248 236 220 207 199 206 218 222 218 206 199 199 198 201 208 213 211 213 221 251 266 277 280 279 279 278 277 276 275 274 272 270 269 267 265 262 261 259 259
274 277 278 284 283 275 280 274 263 251 237 229 203 200 205 214 215 216 204 204 202 200 205 211 217 222 232 251 278 290 293 295 293 290 287 287 285 283 280 277 275 274 272 270 269 267 265 262 261
274 279 281 285 284 271 266 267 271 255 235 226 206 210 217 218 213 208 207 208 209 215 217 220 227 241 262 279 290 297 298 298 298 297 295 292 289 286 283 281 279 278 276 275 273 272 270 267 265
268 264 275 281 282 276 262 263 268 253 241 219 222 218 223 223 222 214 216 220 224 225 228 233 238 249 264 277 286 293 298 300 299 296 294 293 291 289 286 283 280 277 275 274 274 273 271 270 269
258 262 269 274 276 272 268 264 257 257 239 224 222 217 219 222 222 222 223 227 230 231 234 240 250 271 283 286 289 292 294 296 296 296 294 291 290 288 287 285 283 280 277 277 276 275 274 272 269
254 255 264 272 275 279 272 263 252 240 233 222 217 218 227 230 226 229 227 228 231 230 234 239 257 273 274 273 275 280 282 288 295 297 297 294 290 286 285 283 281 280 278 277 276 276 276 276 273
258 259 261 267 268 272 275 269 248 246 235 231 230 231 236 245 242 236 234 231 229 229 235 242 259 268 274 282 283 286 287 287 288 293 295 293 290 285 282 281 279 279 279 278 277 276 275 274 274
257 261 266 265 266 269 275 276 259 250 243 234 233 239 241 238 242 241 240 233 225 226 233 242 257 278 291 297 298 302 306 309 307 303 300 295 290 286 283 281 278 276 276 275 276 276 275 274 271
272 262 264 266 265 254 240 279 266 252 244 243 243 245 246 244 240 235 233 229 221 227 235 247 278 297 304 308 308 308 308 308 306 302 297 292 290 288 285 281 279 277 274 273 272 271 271 270 270
260 264 267 264 258 264 238 259 264 254 252 248 246 246 242 241 240 238 233 222 222 227 239 268 294 306 312 315 315 314 314 312 309 303 298 293 291 290 286 282 279 277 278 277 274 271 268 266 266
243 250 259 264 254 266 242 223 248 260 267 260 251 248 240 233 229 224 222 219 227 238 256 284 300 308 313 316 318 318 316 312 308 302 298 294 291 288 287 286 285 283 280 277 274 269 266 262 261
226 215 315 319 220 235 222 231 248 245 264 258 249 242 239 228 225 220 216 219 228 241 261 281 300 305 310 316 319 319 317 313 309 305 302 297 293 290 287 286 284 282 280 278 276 274 268 264 261
218 207 179 204 202 280 246 244 276 240 253 259 251 241 228 226 214 214 217 223 232 249 265 289 297 302 310 319 319 318 317 314 312 309 306 303 299 295 291 286 283 281 280 278 275 272 272 269 263
213 218 228 216 267 298 249 270 268 273 275 271 262 246 230 216 209 212 221 229 242 257 274 288 297 304 312 317 319 319 316 314 312 309 309 307 305 302 296 291 286 283 281 279 275 273 271 267 263
222 215 177 192 164 238 270 271 242 285 305 301 269 244 218 210 209 213 222 236 250 263 279 291 306 310 317 321 321 318 313 312 312 311 312 312 307 301 301 302 298 295 290 283 278 274 271 267 263
226 223 213 201 210 169 281 247 182 323 330 333 290 237 216 210 210 216 229 242 259 277 295 306 314 318 324 324 321 316 311 310 311 312 314 312 304 304 302 302 296 293 294 288 283 274 267 264 263
224 236 234 214 209 216 219 257 261 304 318 342 294 221 211 211 217 224 235 249 276 304 315 315 319 323 324 323 319 313 311 310 310 311 311 307 302 303 301 301 299 300 303 293 281 280 266 262 261